Regional Weather Roundup
Issued by NWS

Home | Current Version | Previous Version | Text Only | Print | Product List | Glossary On
Versions: 1 2 3 4 5 6 7 8 9 10 11 12 13 14 15 16 17 18 19 20 21 22 23 24 25 26 27 28 29 30 31 32 33 34 35 36 37 38 39 40 41 42 43 44 45 46 47 48 49 50
000
ASUS44 KJAN 030210
RWRMS

MISSISSIPPI HOURLY WEATHER ROUNDUP
NATIONAL WEATHER SERVICE JACKSON MS
900 PM CDT TUE SEP 02 2014

NOTE: "FAIR: INDICATES FEW OR NO CLOUDS BELOW 12,000 FEET WITH NO
SIGNIFICANT WEATHER AND/OR OBSTRUCTIONS TO VISIBILITY.

MSZ001>002-007>008-010>013-018>021-025>028-034>036-030300-
NORTHWEST MISSISSIPPI

CITY           SKY/WX    TMP DP  RH WIND       PRES   REMARKS
CLARKSDALE     CLOUDY    77  77 100 CALM      29.99R
CLEVELAND      FAIR      75  74  98 W5        29.96R
GREENWOOD      CLOUDY    73  71  93 S8        29.96S
GREENVILLE     CLOUDY    75  73  93 S9        29.95S
GRENADA        FAIR      73  72  94 SW6       29.98R
OLIVE BRANCH   PTCLDY    73  73 100 W7        30.00R
OXFORD         CLOUDY    73  72  94 CALM      30.01R
TUNICA         CLOUDY    75  72  88 CALM      29.99R
$$

MSZ003>006-009-014>017-022>024-029>033-037>039-030300-
NORTHEAST MISSISSIPPI

CITY           SKY/WX    TMP DP  RH WIND       PRES   REMARKS
COLUMBUS AFB   MOCLDY    75  74  97 SW6       29.98R
CORINTH        MOCLDY    75  72  88 CALM      30.02R
GOLDN TRIANGLE CLOUDY    75  72  88 SW3       29.98R
STARKVILLE     FAIR      73  72  94 W3        29.98R
TUPELO         CLOUDY    76  73  91 NE8       30.01R
$$

MSZ040-058-030300-
CENTRAL MISSISSIPPI

CITY           SKY/WX    TMP DP  RH WIND       PRES   REMARKS
JACKSON INTL   LGT RAIN  73  71  93 S9        30.00F
JACKSON HAWKNS LGT RAIN  73  71  93 SW9       30.01F
MERIDIAN KEY   LGT RAIN  74  71  91 SW9       30.01F
MERIDIAN NAS   CLOUDY    77  74  90 VRB6      30.00F
RAYMOND        FAIR      73  68  83 S9        30.00F
VICKSBURG      CLOUDY    74  71  91 S9        30.00F
$$

MSZ059>079-030300-
SOUTH MISSISSIPPI

CITY           SKY/WX    TMP DP  RH WIND       PRES   REMARKS
BROOKHAVEN     LGT RAIN  73  73 100 E3        30.09S
COLUMBIA       RAIN      73  72  94 S9        30.11R
HATTIESBURG    RAIN      75  71  87 NW12G17   30.12R
MCCOMB         LGT RAIN  73  71  93 SE3       30.11R
NATCHEZ        CLOUDY    73  72  94 SE13      30.00F
PINE BELT      CLOUDY   N/A N/A N/A SW3       30.10R THUNDER
$$

MSZ080>082-030300-
COASTAL MISSISSIPPI

CITY           SKY/WX    TMP DP  RH WIND       PRES   REMARKS
BAY ST LOUIS   PTCLDY   N/A N/A N/A CALM      30.05R
BILOXI         MOCLDY    83  74  73 CALM      30.05R
PASCAGOULA     MOCLDY    77  75  93 CALM      30.04R
GULFPORT       CLOUDY    80  75  84 NW3       30.04R
$$



USA.gov is the U.S. government's official web portal to all federal, state and local government web resources and services.